Flag for U.S.A. Weather past 2 weeks in Oklahoma City, Oklahoma, U.S.A.

Now
79 °F

Partly cloudy.


Feels Like: 81 °F
Forecast: 60 / 81 °F
Wind: 10 mph from South

Location: Will Rogers World Airport

Current Time: Oct 2, 2014 at 1:55:35 AM

Latest Report: Oct 2, 2014 at 12:52 AM


Visibility: 10 mi

Pressure: 29.67 "Hg

Humidity: 62%

Dew point: 65 °F

Location of Oklahoma CityLocation

Historic Weather in Oklahoma City — Graph

°F

Oklahoma City temperature yesterday

Maximum temperature yesterday: 94 °F (at 3:52 PM)
Minimum temperature yesterday: 71 °F (at 4:52 AM)
Average temperature yesterday: 81 °F

Past Weeks' High & Low Weather Summary

 TemperatureHumidityPressure
High94 °F (Oct 1, 3:52 PM)94% (Sep 19, 9:00 AM)30.27 "Hg (Sep 19, 9:00 AM)
Low55 °F (Sep 23, 5:52 AM)24% (Sep 25, 3:52 PM)29.63 "Hg (Oct 1, 4:52 PM)
Average74 °F62%30.00 "Hg
* Reported Sep 16 11:52 PM — Oct 1 11:52 PM, Oklahoma City, Weather by CustomWeather, © 2014

Note: Actual official high and low records may vary slightly from our data, if they occured in-between our weather recording intervals... More about our weather records

Advertising

Oklahoma City weather history for previous 24 hours

 ConditionsComfort  
Time TempWeatherWind HumidityBarometerVisibility
11:52 PM
Oct 1
79 °FPartly cloudy.13 mph65%29.66 "Hg10 mi
10:52 PM79 °FPassing clouds.13 mph65%29.68 "Hg10 mi
9:52 PM80 °FPassing clouds.16 mph60%29.68 "Hg10 mi
8:52 PM82 °FPassing clouds.14 mph56%29.67 "Hg10 mi
7:52 PM84 °FScattered clouds.16 mph53%29.66 "Hg10 mi
6:52 PM87 °FPartly sunny.14 mph46%29.64 "Hg10 mi
5:52 PM91 °FBroken clouds.16 mph38%29.63 "Hg10 mi
4:52 PM93 °FScattered clouds.17 mph36%29.63 "Hg10 mi
3:52 PM94 °FScattered clouds.18 mph36%29.63 "Hg10 mi
2:52 PM92 °FScattered clouds.18 mph40%29.64 "Hg10 mi
1:52 PM91 °FScattered clouds.21 mph42%29.67 "Hg10 mi
12:52 PM87 °FMostly cloudy.18 mph48%29.69 "Hg10 mi
11:52 AM86 °FScattered clouds.21 mph49%29.70 "Hg10 mi
10:52 AM85 °FScattered clouds.20 mph50%29.71 "Hg10 mi
9:52 AM80 °FScattered clouds.15 mph60%29.72 "Hg10 mi
8:52 AM75 °FScattered clouds.14 mph74%29.72 "Hg10 mi
7:52 AM71 °FPassing clouds.10 mph81%29.71 "Hg10 mi
6:52 AM71 °FPassing clouds.12 mph81%29.70 "Hg10 mi
5:52 AM71 °FPassing clouds.13 mph81%29.69 "Hg10 mi
4:52 AM71 °FPassing clouds.12 mph84%29.69 "Hg10 mi
3:52 AM72 °FPartly cloudy.14 mph81%29.68 "Hg10 mi
2:52 AM73 °FPartly cloudy.13 mph79%29.70 "Hg10 mi
1:52 AM73 °FPassing clouds.16 mph76%29.69 "Hg10 mi
Weather by CustomWeather, © 2014

See weather overviewHow to use our weather pages